Location: Unspecified
(0.0000°N, 0.0000°E)
Time: 12:34:45
(UTC+00:00)

Hubble Space Telescope - Pass Details

Date: 13 May 2026
Orbit: 473 x 476 km, 28.5° (Epoch: 18 May)

Event Time Altitude Azimuth Distance (km) Brightness Sun altitude
Exits shadow 04:33:21 17° 173° (S) 1,259 2.5 -19.7°
Maximum altitude 04:34:22 19° 151° (SSE) 1,187 2.6 -19.4°
Drops below altitude 10° 04:37:04 10° 105° (ESE) 1,627 4.0 -18.8°
Sets 04:39:43 0° 86° (E) 2,501 5.6 -18.2°
